Peyton, CO

8:06 PM MST on December 10, 2016 (GMT -0700)
Meadow Lake

Weather History for KFLY - November, 2012

Change the Weather History Date:

Wednesday, November 7, 2012

  Actual Average (KCOS) Record (KCOS)
Temperature  
Mean Temperature 50 °F -  
Max Temperature 68 °F 55 °F 77 °F (1980)
Min Temperature 33 °F 29 °F 5 °F (1938)
Degree Days  
Heating Degree Days 14    
Moisture  
Dew Point 20 °F    
Average Humidity 35    
Maximum Humidity 73    
Minimum Humidity 13    
Precipitation  
Precipitation 0.00 in - - ()
Sea Level Pressure  
Sea Level Pressure 30.13 in    
Wind  
Wind Speed 7 mph (SW)    
Max Wind Speed 15 mph    
Max Gust Speed 23 mph    
Visibility 10 miles    
Events      
Averages and records for this station are not official NWS values.
T = Trace of Precipitation, MM = Missing Value Source: NWS Daily Summary

Daily Weather History Graph

Daily Weather History Graph

Search for Another Location

Airport or City:

Trip Planner

Search our weather history database for the weather conditions in past years. The results will help you decide how hot, cold, wet, or windy it might be!

Date:

Astronomy

Nov. 07, 2012 Rise Set
Actual Time 6:32 AM MST 4:50 PM MST
Civil Twilight 6:04 AM MST 5:18 PM MST
Nautical Twilight 5:32 AM MST 5:50 PM MST
Astronomical Twilight 5:01 AM MST 6:21 PM MST
Moon No Moon Rise 12:57 PM MST (11/7)
Length of Visible Light 11h 14m
Length of Day
10h 18m
Last Quarter, 42% of the Moon is Illuminated
Nov 7
Last Quarter
Nov 13
New
Nov 20
First Quarter
Nov 28
Full
Dec 6
Last Quarter

Hourly Weather History & Observations

Time (MST) Temp. Windchill Dew Point Humidity Pressure Visibility Wind Dir Wind Speed Gust Speed Precip Events Conditions
12:12 AM 37.6 °F 33.1 °F 26.8 °F 65% 30.28 in 10.0 mi West 5.8 mph - N/A   Clear
12:32 AM 37.6 °F 33.1 °F 26.6 °F 65% 30.27 in 10.0 mi West 5.8 mph - N/A   Clear
12:52 AM 36.7 °F 32.9 °F 27.0 °F 68% 30.27 in 10.0 mi West 4.6 mph - N/A   Clear
1:12 AM 35.8 °F 30.9 °F 26.4 °F 69% 30.26 in 10.0 mi West 5.8 mph - N/A   Clear
1:52 AM 36.1 °F 31.4 °F 26.8 °F 69% 30.26 in 10.0 mi West 5.8 mph - N/A   Clear
2:12 AM 34.2 °F 28.2 °F 25.7 °F 71% 30.24 in 10.0 mi WNW 6.9 mph - N/A   Clear
2:32 AM 34.2 °F 28.2 °F 26.2 °F 73% 30.24 in 10.0 mi West 6.9 mph - N/A   Clear
2:52 AM 34.3 °F 28.4 °F 26.2 °F 72% 30.23 in 10.0 mi West 6.9 mph - N/A   Clear
3:12 AM 34.9 °F 29.0 °F 25.9 °F 70% 30.23 in 10.0 mi West 6.9 mph - N/A   Clear
3:32 AM 36.5 °F 31.0 °F 25.9 °F 65% 30.22 in 10.0 mi West 6.9 mph - N/A   Clear
3:52 AM 33.8 °F 26.4 °F 25.5 °F 72% 30.22 in 10.0 mi West 9.2 mph - N/A   Clear
4:12 AM 34.3 °F 27.7 °F 25.5 °F 70% 30.21 in 10.0 mi West 8.1 mph - N/A   Clear
5:12 AM 39.2 °F - 20.1 °F 46% 30.21 in 10.0 mi Calm Calm - N/A   Clear
5:32 AM 35.2 °F 27.1 °F 19.6 °F 53% 30.20 in 10.0 mi West 11.5 mph - N/A   Clear
5:52 AM 35.2 °F 28.8 °F 19.9 °F 54% 30.19 in 10.0 mi West 8.1 mph - N/A   Clear
6:12 AM 35.8 °F 29.4 °F 20.1 °F 53% 30.19 in 10.0 mi WNW 8.1 mph - N/A   Clear
6:32 AM 35.6 °F 27.5 °F 19.9 °F 53% 30.19 in 10.0 mi West 11.5 mph - N/A   Clear
6:52 AM 34.5 °F 26.7 °F 20.3 °F 56% 30.20 in 10.0 mi West 10.4 mph - N/A   Clear
7:12 AM 39.6 °F 35.4 °F 21.0 °F 48% 30.20 in 10.0 mi WNW 5.8 mph - N/A   Clear
7:32 AM 45.3 °F 40.1 °F 23.9 °F 43% 30.20 in 10.0 mi West 10.4 mph - N/A   Clear
7:52 AM 52.9 °F - 23.2 °F 31% 30.20 in 10.0 mi WNW 4.6 mph - N/A   Clear
8:12 AM 57.6 °F - 20.7 °F 24% 30.20 in 10.0 mi Calm Calm - N/A   Clear
8:32 AM 59.4 °F - 19.6 °F 21% 30.20 in 10.0 mi SW 3.5 mph - N/A   Clear
8:52 AM 60.8 °F - 19.8 °F 21% 30.20 in 10.0 mi Calm Calm - N/A   Clear
9:12 AM 62.6 °F - 20.1 °F 20% 30.19 in 10.0 mi SSE 3.5 mph - N/A   Clear
9:32 AM 63.1 °F - 20.5 °F 19% 30.19 in 10.0 mi SE 4.6 mph - N/A   Clear
9:52 AM 64.2 °F - 19.8 °F 18% 30.18 in 10.0 mi SE 3.5 mph - N/A   Clear
10:12 AM 64.2 °F - 18.3 °F 17% 30.17 in 10.0 mi SE 6.9 mph - N/A   Clear
10:32 AM 65.3 °F - 17.8 °F 16% 30.17 in 10.0 mi SE 5.8 mph - N/A   Clear
10:52 AM 65.8 °F - 17.2 °F 15% 30.15 in 10.0 mi SE 4.6 mph - N/A   Clear
11:12 AM 66.4 °F - 17.2 °F 15% 30.14 in 10.0 mi SSE 6.9 mph - N/A   Clear
11:32 AM 67.1 °F - 16.3 °F 14% 30.12 in 10.0 mi SSE 8.1 mph - N/A   Clear
11:52 AM 67.6 °F - 17.1 °F 14% 30.12 in 10.0 mi SE 5.8 mph - N/A   Clear
12:12 PM 67.3 °F - 17.1 °F 15% 30.10 in 10.0 mi SE 8.1 mph - N/A   Clear
12:32 PM 67.8 °F - 16.2 °F 14% 30.09 in 10.0 mi SSE 3.5 mph - N/A   Clear
12:52 PM 67.8 °F - 15.4 °F 13% 30.08 in 10.0 mi SSE 8.1 mph - N/A   Clear
1:12 PM 68.4 °F - 15.4 °F 13% 30.07 in 10.0 mi SSE 10.4 mph 17.3 mph N/A   Clear
1:32 PM 68.5 °F - 15.1 °F 13% 30.07 in 10.0 mi SE 8.1 mph 19.6 mph N/A   Clear
1:52 PM 68.2 °F - 17.2 °F 14% 30.06 in 10.0 mi South 12.7 mph 18.4 mph N/A   Clear
2:12 PM 68.2 °F - 15.4 °F 13% 30.06 in 10.0 mi South 8.1 mph 18.4 mph N/A   Clear
2:32 PM 67.3 °F - 16.7 °F 14% 30.06 in 10.0 mi SSW 13.8 mph 19.6 mph N/A   Clear
2:52 PM 67.8 °F - 17.6 °F 15% 30.05 in 10.0 mi SSE 11.5 mph 19.6 mph N/A   Clear
3:12 PM 66.6 °F - 17.6 °F 15% 30.06 in 10.0 mi South 13.8 mph 23.0 mph N/A   Clear
3:32 PM 65.3 °F - 17.1 °F 16% 30.06 in 10.0 mi SSE 12.7 mph 23.0 mph N/A   Clear
3:51 PM 63.1 °F - 17.4 °F 17% 30.06 in 10.0 mi SSE 13.8 mph 23.0 mph N/A   Clear
4:11 PM 60.6 °F - 17.6 °F 19% 30.06 in 10.0 mi SSE 8.1 mph - N/A   Clear
4:31 PM 56.8 °F - 16.9 °F 21% 30.06 in 10.0 mi SE 8.1 mph - N/A   Clear
4:51 PM 55.0 °F - 16.5 °F 22% 30.06 in 10.0 mi SSW 5.8 mph - N/A   Clear
5:11 PM 51.1 °F - 16.2 °F 25% 30.06 in 10.0 mi SW 4.6 mph - N/A   Clear
5:31 PM 50.9 °F - 16.7 °F 26% 30.06 in 10.0 mi SSW 6.9 mph - N/A   Clear
5:51 PM 51.1 °F - 17.4 °F 26% 30.06 in 10.0 mi SSW 6.9 mph - N/A   Clear
6:11 PM 49.3 °F - 18.5 °F 30% 30.06 in 10.0 mi SW 3.5 mph - N/A   Clear
6:31 PM 49.1 °F - 19.9 °F 32% 30.06 in 10.0 mi South 5.8 mph - N/A   Clear
6:51 PM 48.0 °F - 19.9 °F 33% 30.06 in 10.0 mi SSW 5.8 mph - N/A   Clear
7:11 PM 44.2 °F - 19.2 °F 37% 30.06 in 10.0 mi Calm Calm - N/A   Clear
7:31 PM 40.5 °F 35.8 °F 20.3 °F 45% 30.06 in 10.0 mi NW 6.9 mph - N/A   Clear
7:52 PM 39.4 °F 36.1 °F 21.0 °F 48% 30.05 in 10.0 mi West 4.6 mph - N/A   Clear
8:11 PM 41.4 °F 36.8 °F 21.2 °F 45% 30.05 in 10.0 mi West 6.9 mph - N/A   Clear
8:32 PM 40.6 °F 34.8 °F 21.2 °F 46% 30.05 in 10.0 mi West 9.2 mph - N/A   Clear
8:51 PM 44.1 °F - 21.9 °F 42% 30.05 in 10.0 mi Calm Calm - N/A   Clear
9:11 PM 47.5 °F - 21.7 °F 36% 30.05 in 10.0 mi Calm Calm - N/A   Clear
9:31 PM 45.0 °F - 20.5 °F 38% 30.04 in 10.0 mi Calm Calm - N/A   Clear
9:51 PM 44.2 °F 39.7 °F 19.0 °F 37% 30.04 in 10.0 mi North 8.1 mph - N/A   Clear
10:11 PM 45.1 °F 39.5 °F 14.7 °F 29% 30.04 in 10.0 mi NNW 11.5 mph - N/A   Clear
10:32 PM 50.0 °F - 14.9 °F 25% 30.04 in 10.0 mi NNW 11.5 mph - N/A   Clear
10:52 PM 52.5 °F - 12.7 °F 21% 30.04 in 10.0 mi NW 15.0 mph 23.0 mph N/A   Clear
11:12 PM 51.3 °F - 12.9 °F 22% 30.04 in 10.0 mi NW 12.7 mph - N/A   Clear
11:32 PM 50.4 °F - 12.2 °F 22% 30.04 in 10.0 mi NNW 10.4 mph - N/A   Clear
11:52 PM 48.4 °F - 12.2 °F 23% 30.03 in 10.0 mi NW 13.8 mph - N/A   Clear